www.pogodaiklimat.ru

Погода и климат >> Архив погоды >> Австрия >> Фельдкирхен


ПОГОДА в Фельдкирхене

  • Прогноз погоды в Фельдкирхене
  • Монитор погоды в Фельдкирхене

АРХИВ ПОГОДЫ в Фельдкирхене

Время (UTC), дата Ветер
(напр.,м/с)
 
Видим.   Явления Облачность Т
(С)
Тd
(С)
f
(%)
Тe
(С)
Тes
(С)
Комфортность P
(гПа)
Po
(гПа)
Тmin
(С)
Tmax
(С)
R
(мм)
R24
(мм)
S
(см)
19 10.06 ЮЗ 2 н/о н/о +26.9 +13.7 44 +29 +29 жарко 1009.2 949.1
20 10.06 ЮВ 1 н/о н/о +24.9 +14.7 53 +28 +28 жарко 1010.4 949.8
21 10.06 С 2 н/о н/о +22.4 +14.8 62 +26 +26 жарко 1011.1 950.0
22 10.06 С 2 н/о н/о +21.2 +15.1 68 +24 +24 комфорт 1011.9 950.5
23 10.06 С 2 н/о н/о +20.4 +15.1 72 +24 +24 комфорт 1011.4 949.9
00 11.06 С 2 н/о н/о +19.2 +15.0 77 +21 +21 комфорт 1011.3 949.5
01 11.06 С 2 н/о н/о +18.5 +14.8 79 +20 +20 1011.1 949.2
02 11.06 С 1 н/о н/о +18.4 +14.8 80 +20 +20 1011.5 949.6
03 11.06 СВ 1 н/о н/о +18.0 +14.7 81 +19 +19 1011.0 949.0
04 11.06 В 1 н/о н/о +18.5 +14.9 80 +20 +20 1010.8 948.9
05 11.06 СВ 2 н/о н/о +18.8 +15.0 79 +20 +20 1010.8 949.0
06 11.06 С 1 н/о н/о +21.0 +15.7 72 +26 +26 душно 1010.6 949.3 +17.9 +28.7
07 11.06 ЮЗ 1 н/о н/о +23.8 +16.6 64 +27 +27 жарко 1010.2 949.5
08 11.06 В 1 н/о н/о +25.1 +16.6 59 +29 +29 душно 1009.7 949.3
09 11.06 Ю 3 н/о н/о +26.0 +16.6 56 +30 +30 душно 1009.6 949.3
10 11.06 ЮВ 3 н/о н/о +27.5 +15.4 48 +30 +30 жарко 1009.1 949.1
11 11.06 ЮВ 3 н/о н/о +27.4 +16.0 50 +31 +31 душно 1009.0 949.0 0.0
12 11.06 Ю 1 н/о н/о +28.7 +15.8 46 +32 +32 душно 1008.2 948.5 0.0
13 11.06 Ю 2 н/о в посл. час осадки н/о +27.6 +17.5 54 +32 +32 очень
душно
1007.8 948.0 0.2
14 11.06 Ю 1 н/о н/о +26.9 +16.1 52 +30 +30 душно 1008.0 948.0 0.0
15 11.06 ЮЗ 2 н/о {осадки} н/о +23.6 +16.8 66 +27 +27 жарко 1009.3 948.6 0.2
16 11.06 З 3 н/о ливневой дождь н/о +21.3 +17.5 79 +25 +25 комфорт 1010.4 949.2 0.2
17 11.06 З 1 н/о в посл. час осадки н/о +19.6 +16.7 83 +23 +23 комфорт 1010.9 949.3 0.2
18 11.06 ЮЗ 2 н/о ливневой дождь н/о +18.9 +15.0 78 +21 +21 комфорт 1012.8 950.9 +18.9 +29.4 0.8
19 11.06 З 1 н/о осадки н/о +17.4 +15.4 88 +18 +18 1014.3 952.0 4
20 11.06 СЗ 1 н/о ливневой дождь {осадки} н/о +17.0 +15.2 89 +18 +18 1014.2 951.8 2
21 11.06 штиль 0 н/о {ливн. осадки} н/о +16.5 +15.0 91 +16 +16 1014.3 951.8 6
22 11.06 СЗ 1 н/о н/о +15.8 +14.6 93 +16 +16 1014.0 951.4
23 11.06 ЮЗ 1 н/о н/о +15.3 +14.5 95 +16 +16 1014.3 951.5
00 12.06 З 1 н/о {ливн. осадки} н/о +14.6 +13.9 96 +15 +15 1013.8 950.9 6
01 12.06 З 1 н/о н/о +14.3 +13.5 95 +15 +15 1013.9 950.9
02 12.06 СВ 1 н/о н/о +14.2 +13.3 94 +14 +14 1013.3 950.3
03 12.06 ЮВ 1 н/о н/о +13.9 +13.1 95 +14 +14 1013.1 950.1
04 12.06 СВ 1 н/о н/о +13.6 +12.7 94 +14 +14 1013.3 950.2
05 12.06 С 1 н/о н/о +14.4 +13.1 92 +15 +15 1013.2 950.3
06 12.06 СВ 1 н/о н/о +16.5 +13.8 84 +17 +17 1012.3 949.9 +13.4 +19.0 6
07 12.06 В 1 н/о н/о +19.5 +15.6 78 +22 +22 комфорт 1011.8 950.1
08 12.06 ЮВ 1 н/о н/о +22.2 +15.8 67 +26 +26 душно 1010.9 949.8
09 12.06 штиль 0 н/о н/о +24.7 +15.1 55 +28 +28 душно 1009.9 949.3
10 12.06 штиль 0 н/о н/о +25.6 +16.7 58 +29 +29 душно 1009.3 949.0
11 12.06 ЮВ 3 н/о н/о +28.0 +15.7 47 +31 +31 душно 1008.4 948.6
12 12.06 ЮВ 3 н/о н/о +27.7 +14.9 46 +30 +30 жарко 1008.4 948.5
13 12.06 Ю 3 н/о ливневой дождь н/о +28.2 +15.5 46 +31 +31 душно 1008.3 948.5 0.2
14 12.06 ЮВ 4 н/о н/о +28.9 +15.3 44 +32 +32 душно 1007.6 948.0
15 12.06 ЮВ 3 н/о {ливн. осадки} н/о +28.9 +16.0 46 +32 +32 душно 1007.5 947.9 0.2
16 12.06 ЮВ 3 н/о н/о +28.9 +15.4 44 +32 +32 душно 1007.4 947.8
17 12.06 Ю 2 н/о н/о +28.7 +14.3 41 +31 +31 жарко 1007.4 947.7
18 12.06 ЮВ 3 н/о {ливн. осадки} н/о +27.4 +14.4 45 +30 +30 жарко 1007.6 947.7 +16.1 +29.4 0.2
19 12.06 ЮВ 1 н/о н/о +24.8 +16.0 58 +28 +28 жарко 1008.5 948.1
20 12.06 штиль 0 н/о н/о +22.4 +16.2 68 +27 +27 душно 1009.8 948.8
21 12.06 С 2 н/о н/о +21.0 +15.5 71 +25 +25 комфорт 1010.4 949.1
22 12.06 С 2 н/о н/о +19.7 +14.6 72 +22 +22 комфорт 1011.3 949.6
23 12.06 С 2 н/о н/о +18.8 +14.2 75 +20 +20 1011.5 949.6
00 13.06 СВ 1 н/о н/о +18.0 +13.8 76 +19 +19 1011.3 949.3
01 13.06 С 1 н/о н/о +17.5 +13.7 78 +19 +19 1011.3 949.2
02 13.06 С 2 н/о н/о +17.5 +13.3 76 +18 +18 1011.5 949.3
03 13.06 С 1 н/о н/о +16.8 +13.1 79 +18 +18 1012.0 949.7
04 13.06 СВ 1 н/о н/о +16.2 +13.1 82 +17 +17 1012.6 950.1
05 13.06 СВ 1 н/о н/о +16.9 +13.5 80 +18 +18 1012.9 950.5
06 13.06 СВ 1 н/о н/о +19.2 +14.2 73 +22 +22 комфорт 1012.7 950.8 +16.2 +27.7
07 13.06 Ю 1 н/о н/о +23.0 +14.9 60 +27 +27 душно 1011.9 950.9
08 13.06 ЮВ 2 н/о н/о +25.1 +14.1 50 +27 +27 жарко 1011.5 950.9
09 13.06 Ю 2 н/о н/о +27.0 +14.2 45 +29 +29 жарко 1010.9 950.7
10 13.06 Ю 2 н/о н/о +28.3 +12.1 37 +29 +29 жарко 1010.7 950.7
11 13.06 Ю 3 н/о н/о +28.2 +12.6 38 +30 +30 жарко 1010.7 950.7
12 13.06 Ю 2 н/о н/о +28.0 +11.6 36 +29 +29 жарко 1010.5 950.5
13 13.06 ЮВ 4 н/о н/о +29.3 +10.1 30 +29 +29 жарко 1010.0 950.2
14 13.06 Ю 2 н/о н/о +29.4 +9.1 28 +29 +29 жарко 1010.0 950.2
15 13.06 ЮЗ 4 н/о н/о +29.9 +10.1 29 +30 +30 жарко 1010.0 950.3
16 13.06 ЮЗ 3 н/о н/о +28.9 +10.4 32 +29 +29 жарко 1010.0 950.1
17 13.06 ЮЗ 3 н/о н/о +28.2 +9.3 31 +28 +28 жарко 1010.6 950.5
18 13.06 ЮЗ 3 н/о н/о +26.4 +12.0 41 +28 +28 жарко 1011.5 951.1 +19.0 +30.1
19 13.06 ЮЗ 3 н/о н/о +24.0 +12.7 49 +26 +26 жарко 1012.7 951.8
20 13.06 ЮЗ 4 н/о н/о +23.1 +10.9 46 +25 +25 комфорт 1013.7 952.5
21 13.06 З 2 н/о н/о +22.6 +10.1 45 +24 +24 комфорт 1013.9 952.6
22 13.06 ЮЗ 2 н/о н/о +20.6 +10.7 53 +23 +23 комфорт 1015.3 953.5
23 13.06 З 2 н/о н/о +18.4 +11.0 62 +19 +19 1016.1 953.8
00 14.06 С 2 н/о н/о +16.3 +11.0 71 +16 +16 1016.5 953.7
01 14.06 СВ 1 н/о н/о +15.5 +10.5 72 +16 +16 1017.2 954.2
02 14.06 С 1 н/о н/о +15.0 +10.1 72 +16 +16 1017.5 954.4
03 14.06 С 1 н/о н/о +14.1 +9.9 76 +14 +14 1017.9 954.6
04 14.06 СВ 1 н/о н/о +13.8 +9.9 77 +14 +14 1018.8 955.3
05 14.06 штиль 0 н/о н/о +14.9 +10.5 75 +15 +15 1019.0 955.8
06 14.06 ЮВ 1 н/о н/о +17.7 +10.6 63 +19 +19 1019.3 956.6 +13.6 +26.7
07 14.06 штиль 0 н/о н/о +20.4 +10.9 54 +22 +22 комфорт 1019.0 956.9
08 14.06 В 1 н/о н/о +23.2 +10.6 45 +25 +25 комфорт 1018.5 957.0
09 14.06 ЮЗ 1 н/о н/о +25.3 +11.4 42 +27 +27 жарко 1017.8 956.8
10 14.06 Ю 2 н/о н/о +26.8 +11.7 39 +28 +28 жарко 1017.3 956.6
11 14.06 ЮВ 2 н/о н/о +28.4 +12.2 37 +30 +30 жарко 1016.5 956.2
12 14.06 ЮВ 3 н/о н/о +29.4 +10.9 32 +30 +30 жарко 1015.8 955.7
13 14.06 ЮВ 2 н/о н/о +30.5 +8.4 25 +30 +30 жарко 1015.1 955.2
14 14.06 ЮВ 3 н/о н/о +31.4 +9.4 26 +31 +31 жарко 1014.2 954.5
15 14.06 ЮВ 3 н/о н/о +31.8 +10.4 27 +32 +32 жарко 1013.6 954.1
16 14.06 ЮВ 2 н/о н/о +31.7 +9.7 26 +31 +31 жарко 1012.9 953.4
17 14.06 ЮВ 2 н/о н/о +31.3 +8.8 25 +30 +30 жарко 1012.7 953.1
18 14.06 Ю 1 н/о н/о +30.0 +11.9 33 +31 +31 жарко 1013.0 953.2 +17.4 +32.1
19 14.06 С 1 н/о н/о +25.6 +14.5 50 +28 +28 жарко 1013.8 953.2
20 14.06 СВ 2 н/о н/о +23.3 +14.0 56 +27 +27 душно 1014.9 953.7
21 14.06 С 1 н/о н/о +21.9 +13.4 58 +25 +25 комфорт 1015.5 954.0
22 14.06 С 1 н/о н/о +20.8 +13.4 63 +24 +24 комфорт 1016.0 954.2
23 14.06 С 1 н/о н/о +19.5 +13.5 68 +22 +22 комфорт 1016.2 954.2
00 15.06 СВ 1 н/о н/о +18.7 +13.7 73 +21 +21 комфорт 1015.9 953.7
01 15.06 С 1 н/о н/о +18.4 +13.3 72 +20 +20 1015.7 953.5
02 15.06 ЮВ 1 н/о н/о +17.5 +13.5 77 +19 +19 1015.8 953.4
03 15.06 СВ 1 н/о н/о +16.9 +13.4 80 +18 +18 1015.7 953.2
04 15.06 штиль 0 н/о н/о +17.2 +13.4 78 +17 +17 1015.7 953.2
05 15.06 З 1 н/о н/о +17.9 +13.6 76 +19 +19 1015.7 953.4
06 15.06 штиль 0 н/о н/о +20.2 +14.3 69 +22 +22 комфорт 1015.2 953.4 +16.9 +30.4
07 15.06 Ю 1 н/о н/о +21.7 +14.7 64 +25 +25 комфорт 1014.6 953.1 0.0
08 15.06 В 1 н/о н/о +24.1 +15.5 59 +27 +27 жарко 1014.1 953.2
09 15.06 Ю 1 н/о н/о +23.2 +14.6 58 +27 +27 душно 1014.3 953.2 0.0
10 15.06 ЮВ 1 н/о н/о +24.0 +15.1 57 +27 +27 жарко 1014.0 953.0
11 15.06 Ю 2 н/о н/о +27.0 +15.9 51 +30 +30 душно 1012.7 952.4
12 15.06 ЮВ 4 н/о н/о +28.0 +15.9 48 +31 +31 душно 1011.8 951.8 0.0
13 15.06 ЮВ 4 н/о н/о +29.8 +14.4 39 +32 +32 душно 1010.5 950.9
14 15.06 В 3 н/о н/о +30.9 +14.5 37 +33 +33 душно 1010.1 950.7
15 15.06 ЮВ 3 н/о н/о +30.6 +14.2 37 +32 +32 жарко 1009.4 950.0 0.0
16 15.06 ЮВ 3 н/о н/о +31.2 +13.2 33 +32 +32 жарко 1008.4 949.1
17 15.06 Ю 2 н/о н/о +30.0 +10.9 31 +30 +30 жарко 1008.7 949.1
18 15.06 Ю 2 н/о н/о +29.1 +10.2 31 +29 +29 жарко 1008.9 949.1 +20.0 +31.3 0.0
19 15.06 ЮЗ 1 н/о н/о +27.0 +11.8 39 +28 +28 жарко 1009.5 949.3
20 15.06 С 1 н/о н/о +23.2 +14.0 56 +27 +27 душно 1011.0 950.0
21 15.06 С 1 н/о н/о +21.5 +13.3 60 +24 +24 комфорт 1011.7 950.3
22 15.06 С 1 н/о н/о +20.1 +12.9 63 +23 +23 комфорт 1012.0 950.3
23 15.06 С 1 н/о н/о +19.5 +12.7 65 +22 +22 комфорт 1012.3 950.5
00 16.06 Ю 1 н/о н/о +18.2 +12.9 71 +20 +20 1013.0 950.9
01 16.06 СВ 1 н/о н/о +17.4 +12.4 72 +18 +18 1013.0 950.7
02 16.06 штиль 0 н/о н/о +16.4 +12.2 76 +16 +16 1012.8 950.3
03 16.06 штиль 0 н/о н/о +15.7 +12.0 79 +16 +16 1013.4 950.7
04 16.06 ЮВ 1 н/о н/о +15.0 +11.7 81 +16 +16 1014.1 951.2
05 16.06 штиль 0 н/о н/о +16.3 +12.1 76 +16 +16 1013.9 951.3
06 16.06 ЮЗ 1 н/о н/о +18.7 +12.3 66 +21 +21 комфорт 1013.9 951.8 +14.8 +29.3
07 16.06 ЮЗ 1 н/о н/о +21.5 +12.8 58 +24 +24 комфорт 1013.5 952.0
08 16.06 ЮВ 1 н/о н/о +25.1 +14.0 50 +27 +27 жарко 1012.7 952.0
09 16.06 ЮВ 1 н/о н/о +27.0 +13.1 42 +29 +29 жарко 1012.3 952.0
10 16.06 ЮВ 2 н/о н/о +28.0 +13.7 41 +30 +30 жарко 1011.9 951.8
11 16.06 Ю 3 н/о н/о +29.2 +14.3 40 +31 +31 жарко 1011.2 951.4
12 16.06 СВ 2 н/о н/о +29.4 +14.6 41 +32 +32 душно 1010.7 951.0
13 16.06 Ю 3 н/о н/о +30.8 +13.1 34 +32 +32 жарко 1009.7 950.3
14 16.06 ЮВ 2 н/о н/о +31.0 +13.0 33 +32 +32 жарко 1009.3 949.9
15 16.06 ЮВ 5 н/о н/о +30.5 +13.7 36 +32 +32 жарко 1009.2 949.8
16 16.06 С 9
{15}
н/о н/о +20.4 +14.9 71 +22 +22 комфорт 1012.8 951.2 6
17 16.06 С 7
{15}
н/о н/о +21.8 +13.6 60 +25 +25 комфорт 1014.4 952.9 0.0
18 16.06 СЗ 4
{15}
н/о в посл. час осадки {ливн. осадки} н/о +18.8 +14.7 77 +20 +20 1017.1 954.9 +18.5 +31.5 10
19 16.06 В 1 н/о н/о +19.4 +13.2 67 +22 +22 комфорт 1017.5 955.4
20 16.06 СВ 1 н/о н/о +17.5 +14.7 84 +19 +19 1018.3 955.8
21 16.06 штиль 0 н/о н/о +16.5 +14.5 88 +16 +16 1018.7 955.9
22 16.06 С 1 н/о н/о +15.9 +14.1 89 +17 +17 1019.3 956.3
23 16.06 С 2 н/о н/о +15.2 +13.7 91 +15 +15 1020.0 956.8
00 17.06 С 1 н/о н/о +14.8 +13.5 92 +15 +15 1019.9 956.7
01 17.06 СВ 1 н/о н/о +14.5 +12.9 90 +15 +15 1020.0 956.7
02 17.06 штиль 0 н/о н/о +14.3 +12.6 90 +14 +14 1019.9 956.5
03 17.06 ЮВ 1 н/о н/о +13.8 +12.4 91 +14 +14 1020.2 956.7
04 17.06 С 1 н/о н/о +13.8 +12.1 89 +14 +14 1020.4 956.9
05 17.06 С 1 н/о н/о +14.0 +12.1 88 +14 +14 1020.5 957.0
06 17.06 штиль 0 н/о н/о +15.6 +12.3 81 +15 +15 1020.2 957.1 +13.6 +19.4
07 17.06 Ю 1 н/о н/о +18.4 +12.8 70 +20 +20 1019.4 956.9
08 17.06 ЮВ 1 н/о н/о +20.4 +13.8 66 +24 +24 комфорт 1018.5 956.5
09 17.06 Ю 1 н/о н/о +21.8 +13.3 58 +24 +24 комфорт 1017.9 956.2
10 17.06 Ю 2 н/о н/о +22.7 +13.7 57 +26 +26 жарко 1017.2 955.8
11 17.06 ЮВ 3 н/о н/о +23.4 +12.5 50 +26 +26 жарко 1017.0 955.7
12 17.06 Ю 2 н/о н/о +24.0 +11.5 45 +25 +25 комфорт 1016.7 955.5
13 17.06 Ю 1 н/о н/о +24.3 +11.8 46 +26 +26 жарко 1016.3 955.2
15 17.06 СВ 1 н/о н/о +23.5 +13.4 53 +26 +26 жарко 1015.6 954.4
17 17.06 СВ 1 н/о н/о +22.4 +14.2 60 +26 +26 жарко 1015.8 954.4
18 17.06 штиль 0 н/о н/о +22.2 +14.2 60 +25 +25 комфорт 1015.8 954.4 +15.3 +24.6

 

Местоположение метеостанции Фельдкирхен (Австрия): широта 46.72 долгота 14.10 высота над уровнем моря 543 м.

В архиве по умолчанию представлена погода в Фельдкирхене за последнюю неделю. Архивные данные за месяц целиком и за предыдущие месяцы, начиная с января 2011 года, Вы можете получить, выбрав интересующий диапазон дат из раскрывающегося списка и нажав кнопку "Ввод!".


*Определитесь, кто Вы:
робот инопланетянин человек

Внимание! Время в таблицах - всемирное. Для получения местного времени необходимо прибавить поправку, которая равна 1 ч.

Смотрите также архив погоды в соседних городах и на ближайших метеорологических станциях:

Погода в Пёрчах-ам-Вёртерзе (Австрия) (11 км)
Погода в Вайтенсфельд-им-Гурктале (Австрия) (16 км)
Погода в Арриахе (Австрия) (19 км)
Погода в Клагенфурте (Австрия) (19 км)
Погода в Клагенфурте (Австрия) (20 км)
Погода в Филлахе (Австрия) (20 км)
Погода на Добраче (Австрия) (35 км)
Погода на Добраче АМС (Австрия) (35 км)
Погода в Ратеце (Словения) (38 км)
Погода в Лесце (Словения) (39 км)

Пояснения к столбцам:

Ветер - указаны скорость ветра в м/с - средняя за 10 мин, порывы в срок и между сроками (в фигурных скобках) и направление, откуда дует ветер: С - северный, СВ - северо-восточный, В - восточный, ЮВ - юго-восточный, Ю - южный, ЮЗ - юго-западный, З - западный, СЗ - северо-западный.
Видимость - горизонтальная дальность видимости в метрах или километрах. При видимости от 1 до 10 км при отсутствии осадков обычно наблюдается дымка, при ухудшении видимости до 1 км и менее - туман. В сухую погоду видимость может ухудшаться дымом, пылью или мглою.
Явления - указаны атмосферные явления, наблюдавшиеся в срок или в последний час перед сроком; фигурными скобками обозначены явления, наблюдавшиеся между сроками (за 1-3 часа до срока); квадратными скобками обозначены град или гололедные отложения с указанием их диаметра в мм.
Облачность - указаны через наклонную черту общая и нижняя облачность в баллах и высота нижней границы облаков в метрах; квадратными скобками обозначены формы облаков: Ci - перистые, Cs - перисто-слоистые, Cc - перисто-кучевые, Ac - высококучевые, As - высокослоистые, Sc - слоисто-кучевые, Ns - слоисто-дождевые, Cu - кучевые, Cb - кучево-дождевые. Подробнее классификацию облаков см. в Атласе облаков (PDF).
T - Температура воздуха - температура, измеренная на высоте 2 м над землей.
Td - Температура точки росы - температура, при понижении до которой содержащийся в воздухе водяной пар достигнет насыщения.
f - Относительная влажность воздуха - влажноcть воздуха, измеренная на высоте 2 м над землей.
Te - Эффективная температура - температура, которую ощущает одетый по сезону человек в тени. Характеристика душности погоды. При расчете учитывается влияние влажности воздуха и скорости ветра на теплоощущения человека.
Tes - Эффективная температура на солнце - температура, которую ощущает человек, с поправкой на солнечный нагрев. Характеристика знойности погоды. Зависит от высоты солнца над горизонтом, облачности и скорости ветра. Ночью, в пасмурную погоду, а также при ветре 12 м/с и более поправка равна нулю.
P - Атмосферное давление - приведенное к уровню моря атмосферное давление.
Po - Атмосферное давление - измеренное на уровне метеостанции атмосферное давление.
Tmin - Минимальная температура - минимум температуры воздуха на высоте 2 м над землей.
Tmax - Максимальная температура - максимум температуры воздуха на высоте 2 м над землей.
R - Количество осадков - Количество выпавших осадков за период времени, мм. При наведении курсора мыши на число - период времени, за который выпало указанное количество осадков.
R24 - Количество осадков - Количество выпавших осадков за 24 часа, мм.
S - Снежный покров - Высота снежного покрова, см. При наведении курсора мыши на число - состояние снежного покрова и степень покрытия местности в баллах.